Year,Month,Day,Hour,Minute,Value (Times are PST for temperature in C)
2017,09,15,00,00,12.10
2017,09,15,00,01,12.00
2017,09,15,00,02,12.00
2017,09,15,00,03,12.00
2017,09,15,00,04,12.00
2017,09,15,00,05,12.00
2017,09,15,00,06,12.00
2017,09,15,00,07,12.00
2017,09,15,00,08,12.00
2017,09,15,00,09,12.10
2017,09,15,00,10,12.10
2017,09,15,00,11,12.10
2017,09,15,00,12,12.20
2017,09,15,00,13,12.20
2017,09,15,00,14,12.30
2017,09,15,00,15,12.30
2017,09,15,00,16,12.30
2017,09,15,00,17,12.30
2017,09,15,00,18,12.30
2017,09,15,00,19,12.30
2017,09,15,00,20,12.30
2017,09,15,00,21,12.30
2017,09,15,00,22,12.30
2017,09,15,00,23,12.40
2017,09,15,00,24,12.40
2017,09,15,00,25,12.50
2017,09,15,00,26,12.60
2017,09,15,00,27,12.60
2017,09,15,00,28,12.70
2017,09,15,00,29,12.70
2017,09,15,00,30,12.70
2017,09,15,00,31,12.80
2017,09,15,00,32,12.80
2017,09,15,00,33,12.80
2017,09,15,00,34,12.70
2017,09,15,00,35,12.70
2017,09,15,00,36,12.70
2017,09,15,00,37,12.70
2017,09,15,00,38,12.70
2017,09,15,00,39,12.70
2017,09,15,00,40,12.70
2017,09,15,00,41,12.70
2017,09,15,00,42,12.70
2017,09,15,00,43,12.70
2017,09,15,00,44,12.70
2017,09,15,00,45,12.70
2017,09,15,00,46,12.60
2017,09,15,00,47,12.60
2017,09,15,00,48,12.60
2017,09,15,00,49,12.60
2017,09,15,00,50,12.60
2017,09,15,00,51,12.60
2017,09,15,00,52,12.50
2017,09,15,00,53,12.50
2017,09,15,00,54,12.50
2017,09,15,00,55,12.50
2017,09,15,00,56,12.50
2017,09,15,00,57,12.50
2017,09,15,00,58,12.50
2017,09,15,00,59,12.50
2017,09,15,01,00,12.50
2017,09,15,01,01,12.60
2017,09,15,01,02,12.60
2017,09,15,01,03,12.60
2017,09,15,01,04,12.60
2017,09,15,01,05,12.60
2017,09,15,01,06,12.60
2017,09,15,01,07,12.60
2017,09,15,01,08,12.50
2017,09,15,01,09,12.50
2017,09,15,01,10,12.50
2017,09,15,01,11,12.50
2017,09,15,01,12,12.40
2017,09,15,01,13,12.30
2017,09,15,01,14,12.30
2017,09,15,01,15,12.30
2017,09,15,01,16,12.20
2017,09,15,01,17,12.10
2017,09,15,01,18,12.00
2017,09,15,01,19,12.00
2017,09,15,01,20,11.90
2017,09,15,01,21,11.90
2017,09,15,01,22,11.80
2017,09,15,01,23,11.80
2017,09,15,01,24,11.80
2017,09,15,01,25,11.80
2017,09,15,01,26,11.80
2017,09,15,01,27,11.70
2017,09,15,01,28,11.70
2017,09,15,01,29,11.70
2017,09,15,01,30,11.70
2017,09,15,01,31,11.60
2017,09,15,01,32,11.60
2017,09,15,01,33,11.60
2017,09,15,01,34,11.60
2017,09,15,01,35,11.60
2017,09,15,01,36,11.60
2017,09,15,01,37,11.60
2017,09,15,01,38,11.60
2017,09,15,01,39,11.60
2017,09,15,01,40,11.60
2017,09,15,01,41,11.60
2017,09,15,01,42,11.60
2017,09,15,01,43,11.60
2017,09,15,01,44,11.60
2017,09,15,01,45,11.60
2017,09,15,01,46,11.60
2017,09,15,01,47,11.60
2017,09,15,01,48,11.60
2017,09,15,01,49,11.60
2017,09,15,01,50,11.60
2017,09,15,01,51,11.60
2017,09,15,01,52,11.60
2017,09,15,01,53,11.60
2017,09,15,01,54,11.50
2017,09,15,01,55,11.40
2017,09,15,01,56,11.40
2017,09,15,01,57,11.40
2017,09,15,01,58,11.40
2017,09,15,01,59,11.40
2017,09,15,02,00,11.40
2017,09,15,02,01,11.30
2017,09,15,02,02,11.30
2017,09,15,02,03,11.30
2017,09,15,02,04,11.20
2017,09,15,02,05,11.20
2017,09,15,02,06,11.20
2017,09,15,02,07,11.10
2017,09,15,02,08,11.10
2017,09,15,02,09,11.10
2017,09,15,02,10,11.00
2017,09,15,02,11,10.90
2017,09,15,02,12,10.90
2017,09,15,02,13,10.90
2017,09,15,02,14,10.90
2017,09,15,02,15,10.80
2017,09,15,02,16,10.80
2017,09,15,02,17,10.80
2017,09,15,02,18,10.70
2017,09,15,02,19,10.70
2017,09,15,02,20,10.70
2017,09,15,02,21,10.70
2017,09,15,02,22,10.70
2017,09,15,02,23,10.70
2017,09,15,02,24,10.80
2017,09,15,02,25,11.00
2017,09,15,02,26,11.10
2017,09,15,02,27,11.20
2017,09,15,02,28,11.30
2017,09,15,02,29,11.40
2017,09,15,02,30,11.60
2017,09,15,02,31,11.70
2017,09,15,02,32,11.80
2017,09,15,02,33,12.00
2017,09,15,02,34,12.00
2017,09,15,02,35,12.10
2017,09,15,02,36,12.20
2017,09,15,02,37,12.20
2017,09,15,02,38,12.10
2017,09,15,02,39,12.00
2017,09,15,02,40,12.00
2017,09,15,02,41,11.90
2017,09,15,02,42,11.80
2017,09,15,02,43,11.80
2017,09,15,02,44,11.80
2017,09,15,02,45,11.80
2017,09,15,02,46,11.70
2017,09,15,02,47,11.60
2017,09,15,02,48,11.60
2017,09,15,02,49,11.50
2017,09,15,02,50,11.40
2017,09,15,02,51,11.30
2017,09,15,02,52,11.30
2017,09,15,02,53,11.20
2017,09,15,02,54,11.20
2017,09,15,02,55,11.20
2017,09,15,02,56,11.10
2017,09,15,02,57,11.10
2017,09,15,02,58,11.10
2017,09,15,02,59,11.10
2017,09,15,03,00,11.10
2017,09,15,03,01,11.10
2017,09,15,03,02,11.10
2017,09,15,03,03,11.10
2017,09,15,03,04,11.10
2017,09,15,03,05,11.10
2017,09,15,03,06,11.10
2017,09,15,03,07,11.20
2017,09,15,03,08,11.20
2017,09,15,03,09,11.30
2017,09,15,03,10,11.30
2017,09,15,03,11,11.30
2017,09,15,03,12,11.30
2017,09,15,03,13,11.30
2017,09,15,03,14,11.30
2017,09,15,03,15,11.40
2017,09,15,03,16,11.40
2017,09,15,03,17,11.50
2017,09,15,03,18,11.60
2017,09,15,03,19,11.70
2017,09,15,03,20,11.70
2017,09,15,03,21,11.80
2017,09,15,03,22,11.80
2017,09,15,03,23,11.90
2017,09,15,03,24,12.00
2017,09,15,03,25,12.00
2017,09,15,03,26,12.10
2017,09,15,03,27,12.30
2017,09,15,03,28,12.40
2017,09,15,03,29,12.60
2017,09,15,03,30,12.80
2017,09,15,03,31,12.90
2017,09,15,03,32,13.10
2017,09,15,03,33,13.30
2017,09,15,03,34,13.40
2017,09,15,03,35,13.50
2017,09,15,03,36,13.60
2017,09,15,03,37,13.70
2017,09,15,03,38,13.80
2017,09,15,03,39,14.00
2017,09,15,03,40,14.10
2017,09,15,03,41,14.20
2017,09,15,03,42,14.20
2017,09,15,03,43,14.20
2017,09,15,03,44,14.30
2017,09,15,03,45,14.30
2017,09,15,03,46,14.30
2017,09,15,03,47,14.30
2017,09,15,03,48,14.30
2017,09,15,03,49,14.30
2017,09,15,03,50,14.40
2017,09,15,03,51,14.40
2017,09,15,03,52,14.40
2017,09,15,03,53,14.40
2017,09,15,03,54,14.50
2017,09,15,03,55,14.50
2017,09,15,03,56,14.50
2017,09,15,03,57,14.50
2017,09,15,03,58,14.50
2017,09,15,03,59,14.50
2017,09,15,04,00,14.50
2017,09,15,04,01,14.50
2017,09,15,04,02,14.50
2017,09,15,04,03,14.40
2017,09,15,04,04,14.40
2017,09,15,04,05,14.40
2017,09,15,04,06,14.40
2017,09,15,04,07,14.40
2017,09,15,04,08,14.40
2017,09,15,04,09,14.40
2017,09,15,04,10,14.40
2017,09,15,04,11,14.40
2017,09,15,04,12,14.40
2017,09,15,04,13,14.40
2017,09,15,04,14,14.30
2017,09,15,04,15,14.30
2017,09,15,04,16,14.30
2017,09,15,04,17,14.20
2017,09,15,04,18,14.20
2017,09,15,04,19,14.20
2017,09,15,04,20,14.20
2017,09,15,04,21,14.20
2017,09,15,04,22,14.20
2017,09,15,04,23,14.10
2017,09,15,04,24,14.10
2017,09,15,04,25,14.00
2017,09,15,04,26,14.00
2017,09,15,04,27,13.90
2017,09,15,04,28,13.80
2017,09,15,04,29,13.70
2017,09,15,04,30,13.60
2017,09,15,04,31,13.40
2017,09,15,04,32,13.30
2017,09,15,04,33,13.10
2017,09,15,04,34,13.00
2017,09,15,04,35,12.80
2017,09,15,04,36,12.70
2017,09,15,04,37,12.60
2017,09,15,04,38,12.40
2017,09,15,04,39,12.30
2017,09,15,04,40,12.20
2017,09,15,04,41,12.00
2017,09,15,04,42,11.90
2017,09,15,04,43,11.70
2017,09,15,04,44,11.60
2017,09,15,04,45,11.50
2017,09,15,04,46,11.40
2017,09,15,04,47,11.40
2017,09,15,04,48,11.40
2017,09,15,04,49,11.40
2017,09,15,04,50,11.40
2017,09,15,04,51,11.30
2017,09,15,04,52,11.20
2017,09,15,04,53,11.20
2017,09,15,04,54,11.10
2017,09,15,04,55,11.10
2017,09,15,04,56,11.10
2017,09,15,04,57,11.10
2017,09,15,04,58,11.10
2017,09,15,04,59,11.00
2017,09,15,05,00,10.90
2017,09,15,05,01,10.90
2017,09,15,05,02,10.90
2017,09,15,05,03,10.90
2017,09,15,05,04,10.90
2017,09,15,05,05,10.90
2017,09,15,05,06,10.80
2017,09,15,05,07,10.80
2017,09,15,05,08,10.80
2017,09,15,05,09,10.70
2017,09,15,05,10,10.70
2017,09,15,05,11,10.60
2017,09,15,05,12,10.60
2017,09,15,05,13,10.60
2017,09,15,05,14,10.60
2017,09,15,05,15,10.60
2017,09,15,05,16,10.60
2017,09,15,05,17,10.60
2017,09,15,05,18,10.60
2017,09,15,05,19,10.60
2017,09,15,05,20,10.60
2017,09,15,05,21,10.60
2017,09,15,05,22,10.40
2017,09,15,05,23,10.40
2017,09,15,05,24,10.40
2017,09,15,05,25,10.40
2017,09,15,05,26,10.40
2017,09,15,05,27,10.30
2017,09,15,05,28,10.30
2017,09,15,05,29,10.20
2017,09,15,05,30,10.20
2017,09,15,05,31,10.20
2017,09,15,05,32,10.10
2017,09,15,05,33,10.10
2017,09,15,05,34,10.10
2017,09,15,05,35,10.10
2017,09,15,05,36,10.10
2017,09,15,05,37,10.10
2017,09,15,05,38,10.10
2017,09,15,05,39,10.10
2017,09,15,05,40,10.10
2017,09,15,05,41,10.00
2017,09,15,05,42,9.90
2017,09,15,05,43,9.90
2017,09,15,05,44,9.90
2017,09,15,05,45,9.90
2017,09,15,05,46,9.90
2017,09,15,05,47,9.80
2017,09,15,05,48,9.70
2017,09,15,05,49,9.70
2017,09,15,05,50,9.70
2017,09,15,05,51,9.70
2017,09,15,05,52,9.70
2017,09,15,05,53,9.70
2017,09,15,05,54,9.60
2017,09,15,05,55,9.60
2017,09,15,05,56,9.60
2017,09,15,05,57,9.60
2017,09,15,05,58,9.60
2017,09,15,05,59,9.60
2017,09,15,06,00,9.50
2017,09,15,06,01,9.50
2017,09,15,06,02,9.50
2017,09,15,06,03,9.50
2017,09,15,06,04,9.50
2017,09,15,06,05,9.40
2017,09,15,06,06,9.40
2017,09,15,06,07,9.40
2017,09,15,06,08,9.40
2017,09,15,06,09,9.30
2017,09,15,06,10,9.30
2017,09,15,06,11,9.30
2017,09,15,06,12,9.30
2017,09,15,06,13,9.20
2017,09,15,06,14,9.20
2017,09,15,06,15,9.20
2017,09,15,06,16,9.20
2017,09,15,06,17,9.20
2017,09,15,06,18,9.20
2017,09,15,06,19,9.20
2017,09,15,06,20,9.20
2017,09,15,06,21,9.20
2017,09,15,06,22,9.20
2017,09,15,06,23,9.10
2017,09,15,06,24,9.10
2017,09,15,06,25,9.10
2017,09,15,06,26,9.10
2017,09,15,06,27,9.10
2017,09,15,06,28,9.10
2017,09,15,06,29,9.10
2017,09,15,06,30,9.00
2017,09,15,06,31,9.00
2017,09,15,06,32,9.00
2017,09,15,06,33,9.00
2017,09,15,06,34,9.00
2017,09,15,06,35,9.00
2017,09,15,06,36,9.00
2017,09,15,06,37,9.00
2017,09,15,06,38,9.00
2017,09,15,06,39,9.10
2017,09,15,06,40,9.10
2017,09,15,06,41,9.10
2017,09,15,06,42,9.10
2017,09,15,06,43,9.10
2017,09,15,06,44,9.10
2017,09,15,06,45,9.10
2017,09,15,06,46,9.10
2017,09,15,06,47,9.10
2017,09,15,06,48,9.10
2017,09,15,06,49,9.10
2017,09,15,06,50,9.10
2017,09,15,06,51,9.10
2017,09,15,06,52,9.10
2017,09,15,06,53,9.00
2017,09,15,06,54,9.00
2017,09,15,06,55,9.00
2017,09,15,06,56,9.00
2017,09,15,06,57,9.00
2017,09,15,06,58,9.00
2017,09,15,06,59,9.00
2017,09,15,07,00,9.00
2017,09,15,07,01,8.90
2017,09,15,07,02,8.90
2017,09,15,07,03,8.90
2017,09,15,07,04,8.90
2017,09,15,07,05,8.90
2017,09,15,07,06,8.90
2017,09,15,07,07,8.80
2017,09,15,07,08,8.80
2017,09,15,07,09,8.80
2017,09,15,07,10,8.90
2017,09,15,07,11,8.90
2017,09,15,07,12,8.90
2017,09,15,07,13,9.00
2017,09,15,07,14,9.00
2017,09,15,07,15,9.10
2017,09,15,07,16,9.10
2017,09,15,07,17,9.10
2017,09,15,07,18,9.20
2017,09,15,07,19,9.20
2017,09,15,07,20,9.30
2017,09,15,07,21,9.40
2017,09,15,07,22,9.40
2017,09,15,07,23,9.50
2017,09,15,07,24,9.60
2017,09,15,07,25,9.70
2017,09,15,07,26,9.70
2017,09,15,07,27,9.70
2017,09,15,07,28,9.80
2017,09,15,07,29,9.90
2017,09,15,07,30,9.90
2017,09,15,07,31,10.10
2017,09,15,07,32,10.10
2017,09,15,07,33,10.30
2017,09,15,07,34,10.40
2017,09,15,07,35,10.40
2017,09,15,07,36,10.40
2017,09,15,07,37,10.40
2017,09,15,07,38,10.50
2017,09,15,07,39,10.60
2017,09,15,07,40,10.60
2017,09,15,07,41,10.70
2017,09,15,07,42,10.80
2017,09,15,07,43,10.90
2017,09,15,07,44,11.00
2017,09,15,07,45,11.10
2017,09,15,07,46,11.30
2017,09,15,07,47,11.30
2017,09,15,07,48,11.40
2017,09,15,07,49,11.60
2017,09,15,07,50,11.80
2017,09,15,07,51,11.90
2017,09,15,07,52,12.00
2017,09,15,07,53,12.10
2017,09,15,07,54,12.20
2017,09,15,07,55,12.30
2017,09,15,07,56,12.30
2017,09,15,07,57,12.40
2017,09,15,07,58,12.50
2017,09,15,07,59,12.50
2017,09,15,08,00,12.60
2017,09,15,08,01,12.70
2017,09,15,08,02,12.80
2017,09,15,08,03,12.90
2017,09,15,08,04,13.00
2017,09,15,08,05,13.00
2017,09,15,08,06,13.00
2017,09,15,08,07,13.00
2017,09,15,08,08,13.00
2017,09,15,08,09,13.00
2017,09,15,08,10,13.10
2017,09,15,08,11,13.10
2017,09,15,08,12,13.10
2017,09,15,08,13,13.10
2017,09,15,08,14,13.10
2017,09,15,08,15,13.20
2017,09,15,08,16,13.20
2017,09,15,08,17,13.20
2017,09,15,08,18,13.20
2017,09,15,08,19,13.20
2017,09,15,08,20,13.20
2017,09,15,08,21,13.20
2017,09,15,08,22,13.30
2017,09,15,08,23,13.30
2017,09,15,08,24,13.30
2017,09,15,08,25,13.30
2017,09,15,08,26,13.30
2017,09,15,08,27,13.30
2017,09,15,08,28,13.40
2017,09,15,08,29,13.50
2017,09,15,08,30,13.60
2017,09,15,08,31,13.70
2017,09,15,08,32,13.80
2017,09,15,08,33,13.90
2017,09,15,08,34,14.00
2017,09,15,08,35,14.20
2017,09,15,08,36,14.30
2017,09,15,08,37,14.50
2017,09,15,08,38,14.70
2017,09,15,08,39,14.90
2017,09,15,08,40,15.00
2017,09,15,08,41,15.20
2017,09,15,08,42,15.30
2017,09,15,08,43,15.40
2017,09,15,08,44,15.50
2017,09,15,08,45,15.70
2017,09,15,08,46,15.80
2017,09,15,08,47,15.80
2017,09,15,08,48,15.90
2017,09,15,08,49,16.00
2017,09,15,08,50,16.10
2017,09,15,08,51,16.10
2017,09,15,08,52,16.10
2017,09,15,08,53,16.10
2017,09,15,08,54,16.10
2017,09,15,08,55,16.10
2017,09,15,08,56,16.10
2017,09,15,08,57,16.10
2017,09,15,08,58,16.10
2017,09,15,08,59,16.10
2017,09,15,09,00,16.10
2017,09,15,09,01,16.00
2017,09,15,09,02,15.90
2017,09,15,09,03,15.90
2017,09,15,09,04,15.90
2017,09,15,09,05,15.90
2017,09,15,09,06,15.80
2017,09,15,09,07,15.80
2017,09,15,09,08,15.80
2017,09,15,09,09,15.80
2017,09,15,09,10,15.90
2017,09,15,09,11,15.90
2017,09,15,09,12,15.90
2017,09,15,09,13,16.00
2017,09,15,09,14,16.10
2017,09,15,09,15,16.10
2017,09,15,09,16,16.10
2017,09,15,09,17,16.10
2017,09,15,09,18,16.10
2017,09,15,09,19,16.20
2017,09,15,09,20,16.20
2017,09,15,09,21,16.20
2017,09,15,09,22,16.20
2017,09,15,09,23,16.20
2017,09,15,09,24,16.20
2017,09,15,09,25,16.20
2017,09,15,09,26,16.30
2017,09,15,09,27,16.30
2017,09,15,09,28,16.30
2017,09,15,09,29,16.40
2017,09,15,09,30,16.40
2017,09,15,09,31,16.40
2017,09,15,09,32,16.40
2017,09,15,09,33,16.40
2017,09,15,09,34,16.40
2017,09,15,09,35,16.40
2017,09,15,09,36,16.50
2017,09,15,09,37,16.60
2017,09,15,09,38,16.70
2017,09,15,09,39,16.70
2017,09,15,09,40,16.70
2017,09,15,09,41,16.80
2017,09,15,09,42,16.80
2017,09,15,09,43,16.90
2017,09,15,09,44,16.90
2017,09,15,09,45,17.00
2017,09,15,09,46,17.10
2017,09,15,09,47,17.20
2017,09,15,09,48,17.20
2017,09,15,09,49,17.30
2017,09,15,09,50,17.30
2017,09,15,09,51,17.30
2017,09,15,09,52,17.30
2017,09,15,09,53,17.30
2017,09,15,09,54,17.40
2017,09,15,09,55,17.40
2017,09,15,09,56,17.40
2017,09,15,09,57,17.40
2017,09,15,09,58,17.40
2017,09,15,09,59,17.30
2017,09,15,10,00,17.30
2017,09,15,10,01,17.30
2017,09,15,10,02,17.30
2017,09,15,10,03,17.30
2017,09,15,10,04,17.30
2017,09,15,10,05,17.30
2017,09,15,10,06,17.30
2017,09,15,10,07,17.20
2017,09,15,10,08,17.20
2017,09,15,10,09,17.20
2017,09,15,10,10,17.20
2017,09,15,10,11,17.20
2017,09,15,10,12,17.20
2017,09,15,10,13,17.20
2017,09,15,10,14,17.30
2017,09,15,10,15,17.40
2017,09,15,10,16,17.50
2017,09,15,10,17,17.50
2017,09,15,10,18,17.60
2017,09,15,10,19,17.60
2017,09,15,10,20,17.70
2017,09,15,10,21,17.80
2017,09,15,10,22,17.90
2017,09,15,10,23,17.90
2017,09,15,10,24,18.00
2017,09,15,10,25,18.10
2017,09,15,10,26,18.10
2017,09,15,10,27,18.10
2017,09,15,10,28,18.10
2017,09,15,10,29,18.00
2017,09,15,10,30,17.90
2017,09,15,10,31,17.90
2017,09,15,10,32,17.90
2017,09,15,10,33,18.00
2017,09,15,10,34,18.10
2017,09,15,10,35,18.10
2017,09,15,10,36,18.20
2017,09,15,10,37,18.20
2017,09,15,10,38,18.10
2017,09,15,10,39,18.10
2017,09,15,10,40,18.10
2017,09,15,10,41,18.00
2017,09,15,10,42,17.90
2017,09,15,10,43,17.90
2017,09,15,10,44,17.90
2017,09,15,10,45,17.90
2017,09,15,10,46,18.00
2017,09,15,10,47,18.10
2017,09,15,10,48,18.20
2017,09,15,10,49,18.20
2017,09,15,10,50,18.30
2017,09,15,10,51,18.30
2017,09,15,10,52,18.30
2017,09,15,10,53,18.30
2017,09,15,10,54,18.30
2017,09,15,10,55,18.30
2017,09,15,10,56,18.30
2017,09,15,10,57,18.30
2017,09,15,10,58,18.20
2017,09,15,10,59,18.20
2017,09,15,11,00,18.20
2017,09,15,11,01,18.20
2017,09,15,11,02,18.20
2017,09,15,11,03,18.20
2017,09,15,11,04,18.20
2017,09,15,11,05,18.20
2017,09,15,11,06,18.20
2017,09,15,11,07,18.20
2017,09,15,11,08,18.20
2017,09,15,11,09,18.20
2017,09,15,11,10,18.20
2017,09,15,11,11,18.10
2017,09,15,11,12,18.10
2017,09,15,11,13,18.10
2017,09,15,11,14,18.20
2017,09,15,11,15,18.20
2017,09,15,11,16,18.30
2017,09,15,11,17,18.30
2017,09,15,11,18,18.40
2017,09,15,11,19,18.40
2017,09,15,11,20,18.30
2017,09,15,11,21,18.30
2017,09,15,11,22,18.30
2017,09,15,11,23,18.30
2017,09,15,11,24,18.40
2017,09,15,11,25,18.40
2017,09,15,11,26,18.50
2017,09,15,11,27,18.50
2017,09,15,11,28,18.40
2017,09,15,11,29,18.40
2017,09,15,11,30,18.30
2017,09,15,11,31,18.40
2017,09,15,11,32,18.40
2017,09,15,11,33,18.50
2017,09,15,11,34,18.50
2017,09,15,11,35,18.50
2017,09,15,11,36,18.60
2017,09,15,11,37,18.60
2017,09,15,11,38,18.70
2017,09,15,11,39,18.70
2017,09,15,11,40,18.80
2017,09,15,11,41,18.90
2017,09,15,11,42,18.90
2017,09,15,11,43,18.90
2017,09,15,11,44,19.00
2017,09,15,11,45,19.10
2017,09,15,11,46,19.10
2017,09,15,11,47,19.10
2017,09,15,11,48,19.10
2017,09,15,11,49,19.20
2017,09,15,11,50,19.20
2017,09,15,11,51,19.20
2017,09,15,11,52,19.30
2017,09,15,11,53,19.30
2017,09,15,11,54,19.40
2017,09,15,11,55,19.60
2017,09,15,11,56,19.70
2017,09,15,11,57,19.80
2017,09,15,11,58,19.90
2017,09,15,11,59,19.90
2017,09,15,12,00,19.90
2017,09,15,12,01,19.80
2017,09,15,12,02,19.80
2017,09,15,12,03,19.80
2017,09,15,12,04,19.90
2017,09,15,12,05,19.90
2017,09,15,12,06,19.90
2017,09,15,12,07,19.80
2017,09,15,12,08,19.70
2017,09,15,12,09,19.60
2017,09,15,12,10,19.60
2017,09,15,12,11,19.50
2017,09,15,12,12,19.50
2017,09,15,12,13,19.40
2017,09,15,12,14,19.50
2017,09,15,12,15,19.60
2017,09,15,12,16,19.60
2017,09,15,12,17,19.80
2017,09,15,12,18,19.90
2017,09,15,12,19,20.00
2017,09,15,12,20,20.20
2017,09,15,12,21,20.20
2017,09,15,12,22,20.20
2017,09,15,12,23,20.30
2017,09,15,12,24,20.40
2017,09,15,12,25,20.40
2017,09,15,12,26,20.50
2017,09,15,12,27,20.50
2017,09,15,12,28,20.60
2017,09,15,12,29,20.60
2017,09,15,12,30,20.60
2017,09,15,12,31,20.60
2017,09,15,12,32,20.70
2017,09,15,12,33,20.70
2017,09,15,12,34,20.80
2017,09,15,12,35,20.90
2017,09,15,12,36,20.90
2017,09,15,12,37,20.90
2017,09,15,12,38,21.00
2017,09,15,12,39,21.00
2017,09,15,12,40,21.10
2017,09,15,12,41,21.30
2017,09,15,12,42,21.20
2017,09,15,12,43,21.10
2017,09,15,12,44,20.90
2017,09,15,12,45,20.70
2017,09,15,12,46,20.50
2017,09,15,12,47,20.30
2017,09,15,12,48,20.30
2017,09,15,12,49,20.30
2017,09,15,12,50,20.30
2017,09,15,12,51,20.30
2017,09,15,12,52,20.40
2017,09,15,12,53,20.50
2017,09,15,12,54,20.60
2017,09,15,12,55,20.60
2017,09,15,12,56,20.60
2017,09,15,12,57,20.50
2017,09,15,12,58,20.40
2017,09,15,12,59,20.40
2017,09,15,13,00,20.40
2017,09,15,13,01,20.30
2017,09,15,13,02,20.20
2017,09,15,13,03,20.20
2017,09,15,13,04,20.20
2017,09,15,13,05,20.20
2017,09,15,13,06,20.20
2017,09,15,13,07,20.20
2017,09,15,13,08,20.20
2017,09,15,13,09,20.20
2017,09,15,13,10,20.20
2017,09,15,13,11,20.30
2017,09,15,13,12,20.20
2017,09,15,13,13,20.20
2017,09,15,13,14,20.20
2017,09,15,13,15,20.20
2017,09,15,13,16,20.20
2017,09,15,13,17,20.20
2017,09,15,13,18,20.20
2017,09,15,13,19,20.20
2017,09,15,13,20,20.30
2017,09,15,13,21,20.30
2017,09,15,13,22,20.20
2017,09,15,13,23,20.20
2017,09,15,13,24,20.20
2017,09,15,13,25,20.20
2017,09,15,13,26,20.20
2017,09,15,13,27,20.20
2017,09,15,13,28,20.30
2017,09,15,13,29,20.30
2017,09,15,13,30,20.20
2017,09,15,13,31,20.30
2017,09,15,13,32,20.30
2017,09,15,13,33,20.30
2017,09,15,13,34,20.30
2017,09,15,13,35,20.40
2017,09,15,13,36,20.40
2017,09,15,13,37,20.50
2017,09,15,13,38,20.50
2017,09,15,13,39,20.40
2017,09,15,13,40,20.40
2017,09,15,13,41,20.30
2017,09,15,13,42,20.30
2017,09,15,13,43,20.40
2017,09,15,13,44,20.50
2017,09,15,13,45,20.50
2017,09,15,13,46,20.50
2017,09,15,13,47,20.50
2017,09,15,13,48,20.50
2017,09,15,13,49,20.50
2017,09,15,13,50,20.50
2017,09,15,13,51,20.50
2017,09,15,13,52,20.50
2017,09,15,13,53,20.60
2017,09,15,13,54,20.60
2017,09,15,13,55,20.60
2017,09,15,13,56,20.70
2017,09,15,13,57,20.80
2017,09,15,13,58,20.90
2017,09,15,13,59,21.00
2017,09,15,14,00,21.00
2017,09,15,14,01,20.90
2017,09,15,14,02,20.90
2017,09,15,14,03,20.80
2017,09,15,14,04,20.80
2017,09,15,14,05,20.90
2017,09,15,14,06,21.00
2017,09,15,14,07,21.00
2017,09,15,14,08,21.00
2017,09,15,14,09,21.00
2017,09,15,14,10,21.10
2017,09,15,14,11,21.20
2017,09,15,14,12,21.30
2017,09,15,14,13,21.40
2017,09,15,14,14,21.40
2017,09,15,14,15,21.40
2017,09,15,14,16,21.40
2017,09,15,14,17,21.40
2017,09,15,14,18,21.30
2017,09,15,14,19,21.30
2017,09,15,14,20,21.30
2017,09,15,14,21,21.40
2017,09,15,14,22,21.50
2017,09,15,14,23,21.40
2017,09,15,14,24,21.40
2017,09,15,14,25,21.40
2017,09,15,14,26,21.50
2017,09,15,14,27,21.60
2017,09,15,14,28,21.60
2017,09,15,14,29,21.80
2017,09,15,14,30,21.90
2017,09,15,14,31,22.00
2017,09,15,14,32,22.00
2017,09,15,14,33,22.00
2017,09,15,14,34,22.00
2017,09,15,14,35,22.00
2017,09,15,14,36,22.00
2017,09,15,14,37,21.90
2017,09,15,14,38,21.90
2017,09,15,14,39,21.80
2017,09,15,14,40,21.80
2017,09,15,14,41,21.80
2017,09,15,14,42,21.80
2017,09,15,14,43,21.90
2017,09,15,14,44,21.90
2017,09,15,14,45,22.00
2017,09,15,14,46,22.10
2017,09,15,14,47,22.00
2017,09,15,14,48,21.90
2017,09,15,14,49,21.90
2017,09,15,14,50,21.80
2017,09,15,14,51,21.90
2017,09,15,14,52,21.90
2017,09,15,14,53,22.00
2017,09,15,14,54,22.10
2017,09,15,14,55,22.10
2017,09,15,14,56,22.20
2017,09,15,14,57,22.10
2017,09,15,14,58,22.10
2017,09,15,14,59,22.20
2017,09,15,15,00,22.30
2017,09,15,15,01,22.30
2017,09,15,15,02,22.30
2017,09,15,15,03,22.40
2017,09,15,15,04,22.30
2017,09,15,15,05,22.20
2017,09,15,15,06,22.20
2017,09,15,15,07,22.20
2017,09,15,15,08,22.10
2017,09,15,15,09,22.20
2017,09,15,15,10,22.20
2017,09,15,15,11,22.20
2017,09,15,15,12,22.20
2017,09,15,15,13,22.20
2017,09,15,15,14,22.30
2017,09,15,15,15,22.30
2017,09,15,15,16,22.40
2017,09,15,15,17,22.50
2017,09,15,15,18,22.50
2017,09,15,15,19,22.50
2017,09,15,15,20,22.50
2017,09,15,15,21,22.50
2017,09,15,15,22,22.50
2017,09,15,15,23,22.50
2017,09,15,15,24,22.40
2017,09,15,15,25,22.40
2017,09,15,15,26,22.30
2017,09,15,15,27,22.20
2017,09,15,15,28,22.20
2017,09,15,15,29,22.10
2017,09,15,15,30,22.10
2017,09,15,15,31,22.10
2017,09,15,15,32,22.20
2017,09,15,15,33,22.20
2017,09,15,15,34,22.20
2017,09,15,15,35,22.20
2017,09,15,15,36,22.30
2017,09,15,15,37,22.40
2017,09,15,15,38,22.40
2017,09,15,15,39,22.40
2017,09,15,15,40,22.30
2017,09,15,15,41,22.40
2017,09,15,15,42,22.40
2017,09,15,15,43,22.30
2017,09,15,15,44,22.30
2017,09,15,15,45,22.20
2017,09,15,15,46,22.30
2017,09,15,15,47,22.30
2017,09,15,15,48,22.30
2017,09,15,15,49,22.30
2017,09,15,15,50,22.30
2017,09,15,15,51,22.30
2017,09,15,15,52,22.40
2017,09,15,15,53,22.50
2017,09,15,15,54,22.60
2017,09,15,15,55,22.60
2017,09,15,15,56,22.70
2017,09,15,15,57,22.80
2017,09,15,15,58,22.90
2017,09,15,15,59,22.80
2017,09,15,16,00,22.80
2017,09,15,16,01,22.80
2017,09,15,16,02,22.80
2017,09,15,16,03,22.80
2017,09,15,16,04,22.70
2017,09,15,16,05,22.70
2017,09,15,16,06,22.60
2017,09,15,16,07,22.60
2017,09,15,16,08,22.60
2017,09,15,16,09,22.60
2017,09,15,16,10,22.60
2017,09,15,16,11,22.60
2017,09,15,16,12,22.60
2017,09,15,16,13,22.50
2017,09,15,16,14,22.50
2017,09,15,16,15,22.50
2017,09,15,16,16,22.50
2017,09,15,16,17,22.50
2017,09,15,16,18,22.50
2017,09,15,16,19,22.50
2017,09,15,16,20,22.60
2017,09,15,16,21,22.60
2017,09,15,16,22,22.60
2017,09,15,16,23,22.50
2017,09,15,16,24,22.60
2017,09,15,16,25,22.60
2017,09,15,16,26,22.60
2017,09,15,16,27,22.60
2017,09,15,16,28,22.70
2017,09,15,16,29,22.70
2017,09,15,16,30,22.70
2017,09,15,16,31,22.80
2017,09,15,16,32,22.90
2017,09,15,16,33,22.90
2017,09,15,16,34,23.00
2017,09,15,16,35,23.10
2017,09,15,16,36,23.10
2017,09,15,16,37,23.20
2017,09,15,16,38,23.30
2017,09,15,16,39,23.30
2017,09,15,16,40,23.30
2017,09,15,16,41,23.40
2017,09,15,16,42,23.50
2017,09,15,16,43,23.60
2017,09,15,16,44,23.70
2017,09,15,16,45,23.70
2017,09,15,16,46,23.70
2017,09,15,16,47,23.80
2017,09,15,16,48,23.90
2017,09,15,16,49,24.00
2017,09,15,16,50,24.10
2017,09,15,16,51,24.10
2017,09,15,16,52,24.20
2017,09,15,16,53,24.30
2017,09,15,16,54,24.30
2017,09,15,16,55,24.30
2017,09,15,16,56,24.30
2017,09,15,16,57,24.40
2017,09,15,16,58,24.40
2017,09,15,16,59,24.40
2017,09,15,17,00,24.50
2017,09,15,17,01,24.50
2017,09,15,17,02,24.60
2017,09,15,17,03,24.60
2017,09,15,17,04,24.60
2017,09,15,17,05,24.60
2017,09,15,17,06,24.50
2017,09,15,17,07,24.40
2017,09,15,17,08,24.40
2017,09,15,17,09,24.40
2017,09,15,17,10,24.50
2017,09,15,17,11,24.60
2017,09,15,17,12,24.60
2017,09,15,17,13,24.70
2017,09,15,17,14,24.70
2017,09,15,17,15,24.70
2017,09,15,17,16,24.70
2017,09,15,17,17,24.70
2017,09,15,17,18,24.70
2017,09,15,17,19,24.70
2017,09,15,17,20,24.70
2017,09,15,17,21,24.60
2017,09,15,17,22,24.70
2017,09,15,17,23,24.70
2017,09,15,17,24,24.70